Location: Mapua
(41.2500°S, 173.1000°E)
Time: 20:58:25
(UTC+12:00)

Envisat - Visible Passes

Search period start: 23 May 2018 00:00
Search period end: 02 June 2018 00:00
Orbit: 764 x 766 km, 98.2° (Epoch: 22 May)

Date Brightness Start Highest point End Pass type
(mag) Time Alt. Az. Time Alt. Az. Time Alt. Az.
23 May 4.4 07:06:42 10° NE 07:11:27 40° ESE 07:16:14 10° S visible
24 May 5.5 06:31:27 10° ENE 06:35:03 20° ESE 06:38:41 10° SSE visible
26 May 4.8 06:55:52 10° NE 07:00:22 32° ESE 07:04:55 10° S visible
27 May 5.6 06:21:02 10° E 06:24:02 16° ESE 06:27:04 10° SSE visible
29 May 5.1 06:45:07 10° ENE 06:49:19 26° ESE 06:53:32 10° S visible
30 May 5.7 06:10:51 10° E 06:13:02 13° ESE 06:15:14 10° SE visible
31 May 4.2 07:09:51 10° NE 07:14:41 44° ESE 07:19:34 10° S visible
01 Jun 5.4 06:34:28 10° ENE 06:38:16 21° ESE 06:42:05 10° SSE visible
